EHI
1 1 0 0 0 0 0 0 0 0 0 0 0 0 0 0 0 0 0 0 0 1 2 3 3 2 1 0 0 0 0 0 0 0 0 0 1 3 3 2 2 2 2 1 0 0 0 0 1
1 0 0 0 0 0 0 0 0 0 0 0 0 0 0 0 0 0 0 0 0 1 1 2 2 2 1 0 0 0 0 0 0 0 0 0 2 3 2 1 1 1 1 0 0 0 0 1 2
0 0 0 0 0 0 0 0 0 0 0 0 0 0 0 0 0 0 0 0 0 0 0 1 1 1 0 0 0 0 0 0 0 0 0 0 1 2 2 1 0 0 0 0 0 0 0 1 2
0 0 0 0 0 0 0 0 0 0 0 0 0 0 0 0 0 0 0 0 0 0 0 0 0 0 0 0 0 0 0 0 0 0 0 0 0 1 1 1 0 0 0 0 0 0 0 0 1
0 0 0 0 0 0 0 0 0 0 0 0 0 0 0 0 0 0 0 0 0 0 0 0 0 0 0 0 0 0 0 0 0 0 0 0 0 0 1 1 0 0 0 0 0 0 0 0 0
0 0 0 0 0 0 0 0 0 0 0 0 0 0 0 0 0 0 0 0 0 0 0 0 0 0 0 0 0 0 0 0 0 0 0 0 0 0 0 0 0 0 0 0 0 0 0 0 0
0 0 0 0 0 0 0 0 0 0 0 0 0 0 0 0 0 0 0 0 0 0 0 0 0 0 0 0 0 0 0 0 0 0 0 0 0 0 0 0 0 0 0 0 0 0 0 0 0
1 0 0 0 0 0 0 0 0 0 0 0 0 0 0 0 0 0 0 0 0 0 0 0 0 0 0 0 0 0 0 0 0 0 0 0 0 0 0 0 0 0 0 0 0 0 0 0 0
1 0 0 0 0 0 0 0 0 0 0 0 0 0 0 0 0 0 0 0 0 0 0 0 0 0 0 0 0 0 0 0 0 0 0 0 0 0 0 0 0 0 0 0 0 0 0 0 0
1 0 0 0 0 0 0 0 0 0 0 0 0 0 0 0 0 0 0 0 0 0 0 0 0 0 0 0 0 0 0 0 0 0 0 0 0 0 0 0 0 0 0 0 0 0 0 0 0
0 0 0 0 0 0 0 0 0 0 0 0 0 0 0 0 0 0 0 0 0 0 0 0 0 0 0 0 0 0 0 0 0 0 0 0 0 0 0 0 0 0 0 0 0 0 0 0 0
0 0 0 0 0 0 0 0 0 0 0 0 0 0 0 0 0 0 0 0 0 0 0 0 0 0 0 0 0 0 0 0 0 0 0 0 0 0 0 0 0 0 0 0 0 0 0 0 0
0 0 0 0 0 0 0 0 0 0 0 0 0 0 0 0 0 0 0 0 0 0 0 0 0 0 0 0 0 0 0 0 0 0 0 0 0 0 0 0 0 0 0 0 0 0 0 0 0
0 0 0 0 0 0 0 0 0 0 0 0 0 0 0 0 0 0 0 0 0 0 0 0 0 0 0 0 0 0 0 0 0 0 0 0 0 0 0 0 0 0 0 0 0 0 0 0 0
0 0 0 0 0 0 0 0 0 0 0 0 0 0 0 0 0 0 0 0 0 0 0 0 0 0 0 0 0 0 0 0 0 0 0 0 0 0 0 0 0 0 0 0 0 0 0 0 0
0 0 0 0 0 0 0 0 0 0 0 0 0 0 0 0 0 0 0 0 0 0 0 0 0 0 0 0 0 0 0 0 0 0 0 0 0 0 0 0 0 0 0 0 0 0 0 0 0
0 0 0 0 0 0 0 0 0 0 0 0 0 0 0 0 0 0 0 0 0 0 0 0 0 0 0 0 0 0 0 0 0 0 0 0 0 0 0 0 0 0 0 0 0 0 0 0 0
0 0 0 0 0 0 0 0 0 0 0 0 0 0 0 0 0 0 0 0 0 0 0 0 0 0 0 0 0 0 0 0 0 0 0 0 0 0 0 0 0 0 0 0 0 0 0 0 0
0 0 0 0 0 0 0 0 0 0 0 0 0 0 0 0 0 0 0 0 0 0 0 0 0 0 0 0 0 0 0 0 0 0 0 0 0 0 0 0 0 0 0 0 0 0 0 0 0
0 0 0 0 0 0 0 0 0 0 0 0 0 0 0 0 0 0 0 0 0 0 0 0 0 0 0 0 0 0 0 0 0 0 0 0 0 0 0 0 0 0 0 0 0 0 0 0 0
0 0 0 0 0 0 0 0 0 0 0 0 0 0 0 0 0 0 1 1 1 1 0 0 0 0 0 0 0 0 0 0 0 0 0 0 0 0 0 0 0 0 0 0 0 0 0 0 0
0 0 0 0 0 0 0 0 0 0 0 0 0 0 0 0 0 1 2 2 2 1 0 0 0 0 0 0 0 0 0 0 0 0 0 0 0 0 0 0 0 0 0 0 0 0 0 0 0
0 0 0 0 0 0 0 0 0 0 0 0 0 0 0 0 0 1 2 2 1 0 0 0 0 0 0 0 0 0 0 0 0 0 0 0 0 0 0 0 0 0 0 0 0 0 0 0 0
0 0 0 0 0 0 0 0 0 0 0 0 0 0 0 0 0 0 1 2 1 0 0 0 0 0 0 0 0 0 0 0 0 0 0 0 0 0 0 0 0 0 0 0 0 0 0 0 0
0 0 0 0 0 0 0 0 0 0 0 0 0 0 0 0 0 0 1 2 1 0 0 0 0 0 0 0 0 0 0 0 0 0 0 0 0 0 0 0 0 0 0 0 0 0 0 0 0
0 0 0 0 0 0 0 0 0 0 0 0 0 0 0 0 0 0 0 1 1 0 0 0 0 0 0 0 0 0 0 0 0 0 0 0 0 0 0 0 0 0 0 0 0 0 0 0 0
0 0 0 0 0 0 0 0 0 0 0 0 0 0 0 0 0 0 0 0 0 0 0 0 0 0 0 0 0 0 0 0 0 0 0 0 0 0 0 0 0 0 0 0 0 0 0 0 0
0 0 0 0 0 0 0 0 0 0 0 0 0 0 0 0 0 0 0 0 0 0 0 0 0 0 0 0 0 0 0 0 0 0 0 0 0 0 0 0 0 0 0 0 0 0 0 0 0
0 0 0 0 0 0 0 0 0 0 0 0 0 0 0 0 0 0 0 0 0 0 0 0 0 0 0 0 0 0 0 0 0 0 0 0 0 0 0 0 0 0 0 0 0 0 0 0 0
0 0 0 0 0 0 0 0 0 0 0 0 0 0 0 0 0 0 0 0 0 0 0 0 0 0 0 0 0 0 0 0 0 0 0 0 0 0 0 0 0 0 0 0 0 0 0 0 0
Wind_Speed
7 5 2 2 4 2 2 2 2 3 2 3 3 3 4 6 5 5 5 6 7 8 8 9 7 7 7 6 6 6 6 5 5 5 4 4 4 4 3 3 3 3 3 3 3 3 3 3 3
5 4 3 3 3 3 4 3 3 4 4 3 2 3 4 6 6 7 6 7 7 8 7 8 8 7 7 7 6 6 6 6 5 4 4 4 4 4 4 4 4 4 4 4 4 4 3 3 3
5 2 2 2 1 2 4 4 4 5 3 1 3 4 4 5 5 5 7 9 8 8 7 9 7 7 7 7 6 6 6 6 5 5 4 4 4 4 4 4 4 4 4 4 4 4 4 4 4
2 2 2 2 4 3 3 4 4 5 4 2 2 5 6 5 4 7 10 9 9 8 8 9 7 7 7 7 6 6 6 6 5 5 4 4 4 4 4 4 5 5 5 5 4 4 5 5 4
1 2 2 3 4 4 3 3 3 3 3 3 3 6 7 6 8 10 10 9 9 8 8 9 7 7 7 7 6 6 6 6 5 5 5 5 5 5 5 5 5 5 5 5 5 4 5 5 5
2 3 3 4 5 4 4 3 3 3 4 4 4 6 7 8 9 9 9 8 8 7 7 8 8 6 6 6 6 6 5 6 5 5 5 5 5 5 5 5 5 5 5 5 5 5 5 5 6
2 2 1 3 4 4 4 2 2 3 4 4 3 5 8 9 9 9 9 8 7 6 6 5 7 8 7 6 5 5 5 6 6 6 6 6 5 5 5 5 5 5 5 5 5 5 5 6 6
2 2 3 3 3 4 3 2 2 1 4 4 2 3 7 11 10 9 8 7 7 6 5 5 4 4 4 5 6 5 5 5 5 5 6 4 1 1 2 3 5 6 6 5 5 5 6 6 6
3 3 2 2 2 4 3 2 3 1 3 4 2 3 8 14 12 10 8 7 6 5 4 4 4 3 2 2 4 3 4 3 0 2 3 3 3 4 2 7 7 6 6 6 5 5 5 7 6
3 1 2 2 1 2 2 1 2 3 4 4 6 7 11 14 13 11 9 8 7 6 5 4 3 3 2 1 1 0 0 1 2 3 3 3 4 4 5 2 2 3 4 3 2 4 6 8 4
2 1 2 2 1 1 1 1 1 2 2 3 5 11 13 13 12 10 8 7 6 5 5 4 3 3 1 1 0 1 1 1 2 3 3 3 4 3 3 3 1 2 4 4 2 5 4 4 4
2 2 1 2 2 0 0 0 2 2 1 2 5 11 14 13 11 10 8 7 6 5 4 4 3 3 2 1 0 1 1 1 2 2 4 4 3 4 4 3 4 4 3 4 5 4 5 6 6
3 3 2 1 1 1 1 1 1 1 1 3 7 10 12 11 10 9 7 6 6 6 5 4 3 2 1 1 1 1 1 2 2 2 3 4 3 4 4 3 4 5 4 4 5 5 5 6 5
3 2 2 1 1 1 2 2 2 2 4 7 9 10 11 10 10 9 8 8 7 7 6 5 5 3 2 2 2 0 1 0 2 2 3 4 3 4 4 4 4 5 5 5 5 6 5 5 4
2 3 3 2 1 1 3 3 3 3 5 7 8 9 9 9 9 9 9 8 7 7 6 6 4 4 3 2 1 1 1 1 2 2 3 3 4 4 4 5 5 5 5 5 5 6 5 4 4
4 3 4 3 2 2 3 3 5 4 5 6 7 8 8 9 10 9 8 8 7 7 6 6 5 5 3 2 2 1 1 1 1 1 2 4 4 4 4 4 5 5 5 5 4 5 4 4 3
5 5 4 4 2 1 2 2 4 2 3 4 5 6 7 8 9 9 8 8 7 7 7 7 6 5 4 3 2 1 1 1 1 1 2 3 4 5 4 4 5 5 5 5 5 4 5 4 4
7 5 5 4 3 2 2 0 2 1 3 3 4 5 6 7 7 7 7 8 7 8 7 7 6 6 5 4 3 2 1 1 1 1 1 3 3 5 5 4 5 5 4 4 5 5 4 4 4
4 5 5 4 2 1 0 1 3 3 2 2 2 3 3 4 4 4 6 7 8 8 8 8 8 7 6 4 3 2 2 1 1 1 2 2 3 4 4 4 5 5 5 5 6 5 4 3 3
4 5 5 5 3 0 2 4 5 5 3 2 1 1 1 2 2 3 5 7 8 9 9 9 8 8 7 4 2 1 1 1 1 1 1 2 3 4 4 5 4 4 4 5 5 4 4 3 3
4 3 4 3 3 2 2 7 7 7 6 5 3 2 2 1 2 1 3 5 7 8 9 8 8 8 7 6 3 2 2 2 2 2 1 2 2 3 4 5 5 4 4 4 5 5 5 4 3
5 2 1 1 3 4 0 7 8 7 8 7 6 4 3 2 2 2 1 3 5 7 7 8 8 8 8 7 5 4 3 2 2 2 1 2 2 2 3 4 4 4 4 4 4 5 4 4 3
4 2 1 1 3 5 2 5 8 6 7 8 8 7 6 5 3 2 1 0 2 4 5 6 8 8 8 7 6 5 4 2 2 2 2 3 1 2 2 3 3 4 3 4 4 4 5 4 4
5 5 4 4 5 5 3 2 7 6 7 7 7 8 8 7 6 4 3 2 2 3 4 5 7 7 7 8 7 7 5 4 3 3 3 3 2 2 2 3 3 3 3 3 4 4 3 4 4
6 6 5 6 5 5 3 2 7 7 6 6 7 8 8 8 7 6 5 3 2 3 4 5 6 7 7 8 8 7 6 6 5 4 3 4 3 2 2 3 3 3 3 3 3 3 3 3 3
3 4 2 3 5 6 4 5 7 6 6 6 6 7 8 9 8 7 6 3 2 2 3 4 5 6 7 8 8 7 7 5 4 5 4 4 3 3 3 3 3 3 3 3 2 3 2 3 2
4 2 3 1 4 4 6 7 7 6 7 8 9 10 11 10 9 8 7 5 3 1 2 3 4 5 6 7 7 7 7 7 6 6 6 4 4 3 4 4 4 3 3 4 3 2 2 2 3
3 2 3 3 4 4 6 5 3 4 6 8 9 10 10 10 10 9 8 6 5 3 1 1 2 4 4 5 6 5 7 7 7 6 6 6 5 4 5 5 5 4 4 3 3 3 3 3 2
5 3 1 1 1 2 4 5 5 4 5 6 7 8 9 9 10 9 8 8 6 5 3 1 1 2 3 5 5 6 6 7 7 7 7 7 6 6 6 6 6 5 4 4 3 4 3 4 3
2 1 4 3 3 1 1 5 5 4 4 5 6 8 8 9 9 9 9 9 8 7 5 4 3 2 3 4 5 5 5 6 7 8 8 8 7 7 7 6 6 6 5 5 5 4 4 4 4
Wind_Direction
167 159 180 223 219 192 108 95 116 121 93 65 50 48 48 36 13 55 96 123 122 128 126 130 121 117 113 110 109 104 97 89 82 75 66 59 54 48 37 26 12 3 357 353 349 350 353 359 357
161 162 208 231 228 138 110 128 122 93 95 105 77 61 70 67 58 89 114 119 125 123 122 110 112 110 105 101 99 92 85 79 72 66 57 47 39 29 18 5 353 347 338 330 323 326 326 332 339
146 188 246 234 172 103 106 112 104 104 119 123 87 58 52 73 91 98 112 127 124 116 111 104 107 102 100 94 89 85 79 72 65 58 50 39 24 9 1 353 341 336 328 317 313 316 314 315 322
175 206 230 223 114 87 92 112 123 135 138 127 115 95 81 71 87 108 123 129 121 116 112 106 104 100 97 93 88 82 75 68 60 50 39 27 15 2 357 350 338 331 323 315 314 311 304 305 310
242 253 208 152 108 103 108 122 147 145 125 120 112 99 96 93 105 119 127 127 123 120 116 111 102 100 96 91 85 79 73 67 58 47 34 23 14 3 355 342 330 325 323 319 317 317 310 307 309
224 239 200 141 120 115 121 141 169 142 124 131 126 110 99 121 128 128 129 128 122 118 118 115 113 99 92 87 82 75 67 62 55 45 31 21 13 4 356 348 338 329 321 315 314 310 305 301 298
266 241 163 131 133 130 113 147 172 144 131 120 125 113 122 140 135 136 133 129 124 124 120 118 124 126 117 94 78 71 64 54 45 37 31 26 22 13 4 351 344 333 324 317 312 306 304 301 298
289 255 163 150 145 110 102 142 114 107 101 114 160 123 139 148 144 142 138 140 141 140 134 125 119 111 114 118 99 75 63 52 46 41 32 14 347 38 355 321 13 344 336 329 324 314 307 301 292
248 230 161 135 138 107 118 147 116 126 139 144 130 74 119 141 149 153 154 157 156 151 148 143 136 123 110 92 103 122 106 75 57 104 76 297 334 355 308 31 12 356 347 339 336 326 308 288 247
228 208 97 65 57 103 129 134 131 176 169 158 140 125 134 151 163 168 170 168 166 165 162 159 161 153 152 124 119 124 90 62 2 9 9 349 2 352 336 85 9 353 336 297 332 306 269 261 258
207 105 95 117 111 131 140 151 204 220 172 157 152 149 155 166 172 176 176 171 165 164 165 169 171 173 180 171 259 3 7 14 355 5 355 340 339 336 337 334 318 312 298 311 308 270 289 297 297
162 109 90 101 122 185 218 182 223 239 4 89 138 152 162 174 179 182 181 175 173 181 178 176 189 184 186 207 122 264 305 341 355 359 348 347 348 334 354 336 344 327 327 329 312 306 304 301 291
170 121 120 127 182 245 237 236 268 250 219 151 147 159 171 178 182 185 186 183 189 190 192 190 202 212 181 144 256 257 323 334 6 357 337 348 340 342 350 340 341 326 328 317 313 305 314 302 297
135 135 129 166 186 208 227 214 211 146 141 149 160 169 177 181 188 188 192 196 199 199 194 182 198 199 214 211 227 269 320 311 330 348 345 347 344 342 338 337 341 338 332 329 313 313 308 296 294
160 167 154 142 179 184 232 180 151 125 156 161 170 175 181 188 195 202 200 203 204 201 196 185 193 199 211 233 254 265 275 313 335 353 342 351 350 340 340 340 342 346 335 326 320 319 306 296 287
179 187 165 123 157 181 239 119 109 128 171 177 179 178 190 198 207 209 210 212 208 206 200 184 191 197 193 200 226 234 261 317 335 346 340 344 351 346 344 341 344 343 332 331 327 320 314 303 295
179 173 151 130 126 195 239 113 109 137 199 199 192 191 198 204 212 212 216 218 213 210 202 191 193 196 182 174 189 216 229 283 323 335 348 341 347 343 344 345 341 340 337 337 331 340 323 318 311
161 158 146 131 116 215 228 318 72 113 203 204 191 199 200 209 212 215 216 218 215 211 203 193 186 191 171 170 185 178 218 233 287 334 352 339 337 342 339 334 340 342 339 340 339 337 325 315 309
138 143 133 106 82 250 213 65 84 94 121 139 164 191 208 219 217 213 215 209 206 204 201 191 190 181 174 172 191 206 212 230 250 307 347 321 324 332 335 328 340 340 346 342 340 338 325 323 323
153 143 130 114 79 348 84 90 83 74 71 66 59 138 210 237 223 195 204 202 205 202 198 195 191 184 184 180 183 196 241 259 295 274 266 297 320 327 326 331 332 344 339 342 349 345 328 333 329
135 130 109 103 132 139 134 112 96 89 88 80 64 36 22 322 287 236 204 205 202 203 199 196 191 184 186 176 168 168 186 226 219 237 255 289 308 316 321 330 332 339 337 356 348 343 339 328 333
125 84 124 164 184 113 53 113 92 88 88 73 62 52 34 9 335 325 248 207 204 203 200 198 191 189 183 180 192 201 229 262 287 286 274 258 270 300 311 320 325 332 340 346 342 357 335 324 326
96 109 142 171 153 139 106 128 103 93 77 60 51 46 37 26 15 5 358 270 198 189 192 195 189 190 186 192 195 216 236 258 266 262 255 268 266 281 291 307 315 328 333 344 344 343 340 335 334
146 163 152 181 190 137 67 128 103 70 42 37 37 38 37 33 34 34 41 64 106 147 175 187 190 191 190 198 204 220 234 243 250 254 262 262 256 263 267 284 299 314 332 336 336 332 341 341 341
206 209 177 172 168 116 80 109 86 56 33 23 21 29 34 36 37 41 45 61 93 142 169 184 190 193 197 205 214 221 231 240 246 255 251 265 272 265 279 272 284 309 322 321 318 316 329 333 333
192 253 243 165 149 131 153 117 87 58 46 42 43 41 41 40 35 34 32 39 70 132 169 187 196 202 201 211 218 224 225 235 245 247 262 263 274 282 283 275 282 292 302 300 302 301 315 320 321
174 167 354 82 129 151 128 121 114 83 67 55 50 45 39 34 33 31 29 29 41 87 165 194 203 210 211 219 223 227 228 230 240 244 249 257 262 267 268 264 266 270 276 287 292 294 302 303 309
360 121 200 212 174 158 146 148 119 70 46 42 41 38 34 31 33 33 31 29 30 33 41 194 225 230 223 227 228 230 234 233 239 247 246 251 256 257 258 258 258 257 256 260 269 279 301 290 294
160 169 172 135 292 228 164 118 54 52 43 38 40 36 31 30 31 31 32 33 33 38 40 33 272 255 246 240 236 232 233 238 239 240 245 249 252 245 248 250 256 258 255 248 244 263 268 281 285
262 216 224 226 160 263 226 107 86 81 63 49 46 45 41 37 36 37 35 36 35 32 28 22 359 317 280 263 252 248 245 241 243 243 243 245 248 249 250 250 250 251 250 251 252 251 256 267 277